Weather History for Joplin, MO

Change the Weather History Date:

Tuesday, November 6, 2012

  Actual Average Record
Temperature  
Mean Temperature 49 °F 53 °F  
Max Temperature 58 °F 64 °F 81 °F (1980)
Min Temperature 40 °F 42 °F 18 °F (1959)
Degree Days  
Heating Degree Days 16 13  
Month to date heating degree days 73 71  
Since 1 July heating degree days 397 323  
Cooling Degree Days 0 0  
Month to date cooling degree days 0 5  
Year to date cooling degree days 2102 1696  
Moisture  
Dew Point 37 °F    
Average Humidity 71    
Maximum Humidity 93    
Minimum Humidity 49    
Precipitation  
Precipitation 0.00 in 0.13 in 2.86 in (1996)
Month to date precipitation T 0.79  
Year to date precipitation 35.65 40.74  
Snow  
Snow 0.00 in - - ()
Month to date snowfall 0.0  
Snow Depth 0.00 in    
Sea Level Pressure  
Sea Level Pressure 30.08 in    
Wind  
Wind Speed 7 mph (NW)    
Max Wind Speed 20 mph    
Max Gust Speed 28 mph    
Visibility 8 miles    
Events      
T = Trace of Precipitation, MM = Missing Value Source: NWS Daily Summary

Daily Weather History Graph

Daily Weather History Graph

Search for Another Location

Airport:

Trip Planner

Search our weather history database for the weather conditions in past years. The results will help you decide how hot, cold, wet, or windy it might be!

Date:

Astronomy

Nov. 06, 2012 Rise Set
Actual Time 6:47 AM CST 5:14 PM CST
Civil Twilight 6:20 AM CST 5:42 PM CST
Nautical Twilight 5:49 AM CST 6:13 PM CST
Astronomical Twilight 5:19 AM CST 6:43 PM CST
Moon 11:52 PM CST (11/6) 12:41 PM CST (11/6)
Length of Visible Light 11h 21m
Length of Day
10h 26m
Waning Gibbous, 53% of the Moon is Illuminated
Nov 6
Waning Gibbous
Nov 6
Last Quarter
Nov 13
New
Nov 20
First Quarter
Nov 28
Full

Hourly Weather History & Observations

Time (CST) Temp. Windchill Dew Point Humidity Pressure Visibility Wind Dir Wind Speed Gust Speed Precip Events Conditions
12:05 AM 42.8 °F 39.3 °F 39.2 °F 87% 30.10 in 5.0 mi North 5.8 mph - N/A   Overcast
12:53 AM 43.0 °F 41.3 °F 39.9 °F 89% 30.10 in 6.0 mi North 3.5 mph - N/A   Overcast
1:13 AM 42.8 °F 39.3 °F 39.2 °F 87% 30.10 in 5.0 mi NNW 5.8 mph - N/A   Overcast
1:53 AM 43.0 °F 40.3 °F 39.9 °F 89% 30.10 in 5.0 mi North 4.6 mph - N/A   Overcast
2:06 AM 42.8 °F - 39.2 °F 87% 30.09 in 5.0 mi Calm Calm - N/A   Overcast
2:53 AM 43.0 °F 41.3 °F 39.9 °F 89% 30.10 in 5.0 mi North 3.5 mph - N/A   Overcast
3:44 AM 42.8 °F 41.1 °F 39.2 °F 87% 30.09 in 4.0 mi NNW 3.5 mph - N/A   Overcast
3:53 AM 43.0 °F 40.3 °F 39.9 °F 89% 30.10 in 4.0 mi North 4.6 mph - N/A   Overcast
4:18 AM 42.8 °F - 41.0 °F 93% 30.07 in 4.0 mi Calm Calm - N/A   Overcast
4:53 AM 43.0 °F - 39.9 °F 89% 30.09 in 5.0 mi Calm Calm - N/A   Overcast
5:53 AM 43.0 °F 41.3 °F 39.9 °F 89% 30.10 in 5.0 mi West 3.5 mph - N/A   Overcast
6:53 AM 43.0 °F 38.8 °F 39.9 °F 89% 30.10 in 5.0 mi WSW 6.9 mph - N/A   Overcast
7:53 AM 44.1 °F 40.8 °F 39.9 °F 85% 30.12 in 6.0 mi West 5.8 mph - N/A   Overcast
8:53 AM 45.0 °F 40.1 °F 39.0 °F 80% 30.10 in 10.0 mi West 9.2 mph - N/A   Scattered Clouds
9:53 AM 48.0 °F - 39.0 °F 71% 30.10 in 10.0 mi WSW 9.2 mph - N/A   Clear
10:53 AM 51.1 °F - 39.9 °F 66% 30.09 in 10.0 mi WSW 11.5 mph - N/A   Partly Cloudy
11:53 AM 54.0 °F - 39.9 °F 59% 30.07 in 10.0 mi West 10.4 mph - N/A   Clear
12:53 PM 55.9 °F - 39.9 °F 55% 30.05 in 10.0 mi WNW 15.0 mph 24.2 mph N/A   Clear
1:53 PM 57.9 °F - 39.9 °F 51% 30.03 in 10.0 mi WNW 13.8 mph - N/A   Clear
2:53 PM 57.0 °F - 39.9 °F 53% 30.02 in 10.0 mi WNW 9.2 mph - N/A   Clear
3:53 PM 57.9 °F - 39.0 °F 49% 30.02 in 10.0 mi WNW 9.2 mph - N/A   Clear
4:53 PM 55.9 °F - 37.9 °F 51% 30.02 in 10.0 mi NW 6.9 mph - N/A   Clear
5:53 PM 51.1 °F - 35.1 °F 54% 30.05 in 10.0 mi North 5.8 mph - N/A   Clear
6:53 PM 50.0 °F - 33.1 °F 52% 30.08 in 10.0 mi NW 8.1 mph - N/A   Clear
7:53 PM 46.0 °F 43.1 °F 28.9 °F 51% 30.08 in 10.0 mi NW 5.8 mph - N/A   Clear
8:53 PM 44.1 °F 42.5 °F 28.0 °F 53% 30.09 in 10.0 mi NW 3.5 mph - N/A   Clear
9:53 PM 44.1 °F 42.5 °F 27.0 °F 51% 30.09 in 10.0 mi WNW 3.5 mph - N/A   Clear
10:53 PM 44.1 °F 42.5 °F 27.0 °F 51% 30.09 in 10.0 mi West 3.5 mph - N/A   Clear
11:53 PM 41.0 °F 39.0 °F 27.0 °F 57% 30.09 in 10.0 mi West 3.5 mph - N/A   Clear